Погода в Екатерининском

Россия / Алтайский край     50°54′37″N   82°01′00″E
темп.,
°C
ветер,
м/с
пор.,
м/с
влажн.,
%
обл.,
%
осадки,
мм/ч
давл.,
гПа
погр.,
м
16 мая, пн
пн1601:00+13юв338895 0.1 101753
04:00+12юв22905 0.0 101718
07:00+12ююв24867 0.0 1018109
10:00+18ю346080 0.0 1017571
13:00+23зюз33375 0.0 10162206
16:00+24зсз123239 0.0 10142375
19:00+23ююв333851 0.0 1014670
22:00+17юв3554100 0.0 101471
17 мая, вт
вт1701:00+15юв325595 0.0 101426
04:00+14юв325856 0.0 101325
07:00+14юв34644 0.0 101375
10:00+22ююв46445 0.0 1012530
13:00+26ю34334 0.0 10112084
16:00+27ююз24276 0.0 10103002
19:00+26юв34355 0.0 1009286
22:00+19юв47495 0.0 101099
18 мая, ср
ср1801:00+17юв3350100 0.0 101039
04:00+16юв225230 0.0 101022
07:00+16вюв336194 0.0 101165
10:00+24ююв464245 0.0 1011446
13:00+28ю44325 0.0 10101416
16:00+29ююв3326100 0.0 10093090
19:00+27юв3437100 0.0 1008148
22:00+21вюв3445100 0.0 100949
19 мая, чт
чт1901:00+19юв3346100 0.0 100823
04:00+18юв4549100 0.0 100871
07:00+17ююв4116771 0.3 1007231
10:00+23юз684299 0.1 10091003
13:00+20ююз3762100 0.4 1012535
16:00+20зюз586548 0.8 1014513
19:00+23ю35494 1.1 10141383
22:00+16зюз12693 0.0 101717
20 мая, пт
пт2001:00+14ссв11725 0.0 101711
04:00+13в1184100 0.0 101711
07:00+14вюв128169 0.0 101751
10:00+21ююв22565 0.0 1017525
13:00+25юз34365 0.0 10152097
16:00+27з13313 0.0 10132626
19:00+26всв21360 0.0 1012998
22:00+19всв22510 0.0 101217